User: anonymous   Login
Location: Unspecified
(0.0000°N, 0.0000°E)
Time: 01:10:34
(UTC+00:00)
Language:

STARLINK-3459 - Orbit

View from above orbital plane
View from above orbital plane
View from above satellite
View from above satellite

Ground track
Ground track

The orbit is defined by the following mean orbital elements,

1 51757U          26145.49984479 +.00000000 +00000-0 -15377-4 0 00008
2 51757  53.2127 324.3154 0001444  87.6279 272.4878 15.08844797    02
Epoch (UTC): 25 May 2026 11:59:46
Eccentricity: 0.0001444
inclination: 53.2127°
perigee height: 539 km
apogee height: 541 km
right ascension of ascending node: 324.3154°
argument of perigee: 87.6279°
revolutions per day: 15.08844797
mean anomaly at epoch: 272.4878°

The dashed part of the orbit path shows where the satellite is in the earth's shadow,  

DLR